TimeCDT,TemperatureF,Dew PointF,Humidity,Sea Level PressureIn,VisibilityMPH,Wind Direction,Wind SpeedMPH,Gust SpeedMPH,PrecipitationIn,Events,Conditions,WindDirDegrees,DateUTC
12:10 AM,59.0,57.2,94,29.95,10.0,WNW,3.5,-,N/A,,Overcast,290,2013-10-17 05:10:00
12:30 AM,59.0,57.2,94,29.95,10.0,NNW,3.5,-,N/A,,Overcast,330,2013-10-17 05:30:00
12:50 AM,59.0,57.2,94,29.95,10.0,NNW,4.6,-,N/A,,Overcast,330,2013-10-17 05:50:00
1:10 AM,59.0,57.2,94,29.95,10.0,NW,4.6,-,N/A,,Overcast,310,2013-10-17 06:10:00
1:30 AM,59.0,57.2,94,29.96,5.0,NW,4.6,-,N/A,Rain,Light Rain,320,2013-10-17 06:30:00
1:50 AM,59.0,57.2,94,29.95,3.0,NW,4.6,-,0.01,Rain,Light Rain,320,2013-10-17 06:50:00
2:10 AM,59.0,57.2,94,29.95,5.0,NW,4.6,-,N/A,Rain,Light Rain,310,2013-10-17 07:10:00
2:30 AM,59.0,57.2,94,29.94,10.0,NNW,4.6,-,N/A,,Overcast,330,2013-10-17 07:30:00
2:50 AM,59.0,57.2,94,29.94,10.0,NW,4.6,-,N/A,Rain,Light Rain,320,2013-10-17 07:50:00
3:10 AM,59.0,57.2,94,29.93,10.0,NW,4.6,-,N/A,,Overcast,310,2013-10-17 08:10:00
3:30 AM,59.0,55.4,88,29.93,10.0,NW,3.5,-,N/A,,Overcast,310,2013-10-17 08:30:00
3:50 AM,59.0,55.4,88,29.94,10.0,NW,6.9,-,N/A,,Overcast,310,2013-10-17 08:50:00
4:10 AM,59.0,55.4,88,29.94,9.0,NW,6.9,-,N/A,,Overcast,320,2013-10-17 09:10:00
4:30 AM,57.2,55.4,94,29.94,5.0,NW,5.8,-,N/A,Rain,Light Rain,310,2013-10-17 09:30:00
4:50 AM,57.2,55.4,94,29.95,1.8,NW,6.9,-,0.01,Rain,Light Rain,310,2013-10-17 09:50:00
5:10 AM,57.2,55.4,94,29.95,2.5,NW,9.2,-,N/A,Rain,Light Rain,310,2013-10-17 10:10:00
5:30 AM,57.2,55.4,94,29.95,3.0,NW,4.6,-,0.01,Rain,Light Rain,320,2013-10-17 10:30:00
5:50 AM,57.2,55.4,94,29.95,3.0,NW,5.8,-,0.01,Rain,Light Rain,320,2013-10-17 10:50:00
6:10 AM,57.2,55.4,94,29.96,5.0,NW,8.1,-,N/A,Rain,Light Rain,310,2013-10-17 11:10:00
6:30 AM,57.2,53.6,88,29.96,5.0,NW,6.9,-,N/A,,Overcast,310,2013-10-17 11:30:00
6:50 AM,57.2,55.4,94,29.96,10.0,Calm,Calm,-,N/A,,Overcast,0,2013-10-17 11:50:00
7:10 AM,57.2,55.4,94,29.95,10.0,Calm,Calm,-,N/A,,Overcast,0,2013-10-17 12:10:00
7:30 AM,57.2,55.4,94,29.97,10.0,NW,9.2,-,N/A,,Overcast,310,2013-10-17 12:30:00
7:50 AM,57.2,55.4,94,29.98,10.0,NW,8.1,-,N/A,,Overcast,320,2013-10-17 12:50:00
8:10 AM,57.2,53.6,88,29.99,10.0,NNW,4.6,-,N/A,,Overcast,340,2013-10-17 13:10:00
8:30 AM,57.2,53.6,88,29.99,3.0,NW,3.5,-,N/A,,Overcast,320,2013-10-17 13:30:00
8:50 AM,57.2,53.6,88,30.00,3.0,NNW,6.9,-,N/A,,Overcast,340,2013-10-17 13:50:00
9:10 AM,57.2,53.6,88,30.01,10.0,NNW,8.1,-,N/A,,Overcast,340,2013-10-17 14:10:00
9:30 AM,57.2,53.6,88,30.02,9.0,NW,8.1,-,N/A,,Overcast,320,2013-10-17 14:30:00
9:50 AM,57.2,53.6,88,30.02,5.0,NNW,6.9,-,N/A,,Overcast,340,2013-10-17 14:50:00
10:10 AM,57.2,53.6,88,30.02,10.0,North,5.8,-,N/A,,Overcast,360,2013-10-17 15:10:00
10:30 AM,57.2,53.6,88,30.02,10.0,North,5.8,-,N/A,,Overcast,360,2013-10-17 15:30:00
10:50 AM,57.2,53.6,88,30.03,10.0,North,6.9,-,N/A,,Overcast,350,2013-10-17 15:50:00
11:10 AM,57.2,53.6,88,30.03,10.0,NNE,4.6,-,N/A,,Overcast,20,2013-10-17 16:10:00
11:30 AM,59.0,53.6,82,30.03,10.0,NW,5.8,-,N/A,,Overcast,320,2013-10-17 16:30:00
11:50 AM,59.0,53.6,82,30.02,10.0,North,8.1,-,N/A,,Overcast,360,2013-10-17 16:50:00
12:10 PM,59.0,53.6,82,30.02,10.0,NW,5.8,-,N/A,,Overcast,310,2013-10-17 17:10:00
12:30 PM,59.0,53.6,82,30.01,10.0,NNW,4.6,-,N/A,,Overcast,330,2013-10-17 17:30:00
12:50 PM,59.0,53.6,82,30.01,10.0,West,4.6,-,N/A,,Overcast,280,2013-10-17 17:50:00
1:10 PM,59.0,53.6,82,30.00,10.0,NW,4.6,-,N/A,,Overcast,310,2013-10-17 18:10:00
1:30 PM,62.6,55.4,77,30.00,10.0,NW,3.5,-,N/A,,Overcast,320,2013-10-17 18:30:00
1:50 PM,62.6,51.8,68,29.99,10.0,North,3.5,-,N/A,,Overcast,10,2013-10-17 18:50:00
2:10 PM,64.4,53.6,68,29.98,10.0,North,3.5,-,N/A,,Mostly Cloudy,360,2013-10-17 19:10:00
2:30 PM,62.6,51.8,68,29.98,10.0,Calm,Calm,-,N/A,,Mostly Cloudy,0,2013-10-17 19:30:00
2:50 PM,64.4,51.8,64,29.98,10.0,NNW,4.6,-,N/A,,Mostly Cloudy,330,2013-10-17 19:50:00
3:10 PM,64.4,50.0,59,29.97,10.0,NNW,4.6,-,N/A,,Scattered Clouds,330,2013-10-17 20:10:00
3:30 PM,66.2,51.8,60,29.97,10.0,NNE,4.6,-,N/A,,Mostly Cloudy,20,2013-10-17 20:30:00
3:50 PM,64.4,50.0,59,29.97,10.0,North,3.5,-,N/A,,Mostly Cloudy,10,2013-10-17 20:50:00
4:10 PM,64.4,50.0,59,29.97,10.0,Calm,Calm,-,N/A,,Partly Cloudy,0,2013-10-17 21:10:00
4:30 PM,64.4,50.0,59,29.97,10.0,WNW,4.6,-,N/A,,Partly Cloudy,300,2013-10-17 21:30:00
4:50 PM,66.2,50.0,56,29.97,10.0,West,3.5,-,N/A,,Mostly Cloudy,280,2013-10-17 21:50:00
5:10 PM,66.2,50.0,56,29.97,10.0,WNW,3.5,-,N/A,,Overcast,300,2013-10-17 22:10:00
5:30 PM,64.4,50.0,59,29.97,10.0,NNW,3.5,-,N/A,,Scattered Clouds,340,2013-10-17 22:30:00
5:50 PM,62.6,50.0,63,29.98,10.0,NNW,3.5,-,N/A,,Mostly Cloudy,330,2013-10-17 22:50:00
6:10 PM,60.8,51.8,72,29.99,10.0,Calm,Calm,-,N/A,,Mostly Cloudy,0,2013-10-17 23:10:00
6:30 PM,59.0,53.6,82,29.99,10.0,Calm,Calm,-,N/A,,Overcast,0,2013-10-17 23:30:00
6:50 PM,57.2,53.6,88,29.99,10.0,Calm,Calm,-,N/A,,Overcast,0,2013-10-17 23:50:00
7:10 PM,57.2,53.6,88,30.00,10.0,Calm,Calm,-,N/A,,Scattered Clouds,0,2013-10-18 00:10:00
7:30 PM,57.2,53.6,88,30.00,10.0,Calm,Calm,-,N/A,,Mostly Cloudy,0,2013-10-18 00:30:00
7:50 PM,57.2,53.6,88,30.01,10.0,Calm,Calm,-,N/A,,Overcast,0,2013-10-18 00:50:00
8:10 PM,55.4,53.6,94,30.01,10.0,Calm,Calm,-,N/A,,Mostly Cloudy,0,2013-10-18 01:10:00
8:30 PM,55.4,51.8,88,30.01,10.0,Calm,Calm,-,N/A,,Partly Cloudy,0,2013-10-18 01:30:00
8:50 PM,53.6,51.8,94,30.02,8.0,Calm,Calm,-,N/A,,Clear,0,2013-10-18 01:50:00
9:10 PM,53.6,51.8,94,30.02,10.0,Calm,Calm,-,N/A,,Clear,0,2013-10-18 02:10:00
9:30 PM,53.6,50.0,88,30.02,4.0,Calm,Calm,-,N/A,,Clear,0,2013-10-18 02:30:00
9:50 PM,51.8,50.0,94,30.02,0.2,Calm,Calm,-,N/A,Fog,Fog,0,2013-10-18 02:50:00
10:10 PM,51.8,50.0,94,30.02,1.2,Calm,Calm,-,N/A,,Clear,0,2013-10-18 03:10:00
10:30 PM,50.0,50.0,100,30.03,0.5,NW,4.6,-,N/A,Fog,Fog,310,2013-10-18 03:30:00
10:50 PM,50.0,48.2,94,30.03,0.5,Calm,Calm,-,N/A,Fog,Fog,0,2013-10-18 03:50:00
11:10 PM,50.0,48.2,94,30.02,0.5,NW,3.5,-,N/A,Fog,Fog,320,2013-10-18 04:10:00
11:30 PM,48.2,48.2,100,30.02,0.2,Calm,Calm,-,N/A,Fog,Fog,0,2013-10-18 04:30:00
11:50 PM,48.2,48.2,100,30.02,0.2,Calm,Calm,-,N/A,Fog,Fog,0,2013-10-18 04:50:00